This demonstration page uses our WeatherBlox Daily Observations layout. Learn more.

Left ArrowRight Arrow

39.08367, -84.50855

Hourly Observations for March 12, 2018

Temp ( °F °C ) Dew Point ( °F °C ) Humidity (%) Winds ( mph kmh ) Pressure ( in mb ) Visibility ( mi km ) Precip ( " mm )
12:53 am 00:53 Mostly Clear 37 2.8 25 -3.9 62 62 NNE 13 20 30.04 1017 10 16.0934 0 0
1:53 am 01:53 Clear 36 2.2 22 -5.6 57 57 NNE 12 19 30.04 1017 10 16.0934 0 0
2:53 am 02:53 Clear 36 2.2 21 -6.1 55 55 NNE 16 26 30.04 1017 10 16.0934 0 0
3:53 am 03:53 Clear 35 1.7 21 -6.1 57 57 N 14 22 30.01 1016 10 16.0934 0 0
4:53 am 04:53 Clear 34 1.1 21 -6.1 59 59 NNE 13 20 30.01 1016 10 16.0934 0 0
5:53 am 05:53 Clear 32 0 21 -6.1 64 64 NNE 9 15 30.03 1017 10 16.0934 0 0
6:53 am 06:53 Clear 32 0 21 -6.1 64 64 N 13 20 30.03 1017 10 16.0934 0 0
7:53 am 07:53 Clear 30 -1.1 22 -5.6 72 72 N 9 15 30.06 1018 10 16.0934 0 0
8:53 am 08:53 Sunny 31 -0.6 22 -5.6 69 69 N 8 13 30.06 1018 10 16.0934 0 0
9:53 am 09:53 Sunny 34 1.1 22 -5.6 61 61 N 9 15 30.07 1018 10 16.0934 0 0
10:53 am 10:53 Sunny 37 2.8 23 -5 57 57 NNW 9 15 30.06 1018 10 16.0934 0 0
11:53 am 11:53 Sunny 40 4.4 22 -5.6 49 49 N 13 20 30.07 1018 10 16.0934 0 0
12:53 pm 12:53 Cloudy 40 4.4 22 -5.6 49 49 N 13 20 30.06 1018 10 16.0934 0 0
1:53 pm 13:53 Cloudy 44 6.7 24 -4.4 45 45 NW 10 17 30.05 1018 10 16.0934 0 0
2:53 pm 14:53 Cloudy 42 5.6 24 -4.4 49 49 NNW 9 15 30.03 1017 10 16.0934 0 0
3:53 pm 15:53 Cloudy 42 5.6 24 -4.4 49 49 WNW 10 17 30.03 1017 10 16.0934 0 0
4:53 pm 16:53 Cloudy 42 5.6 27 -2.8 55 55 VRB 6 9 30.03 1017 10 16.0934 0 0
5:53 pm 17:53 Cloudy 41 5 27 -2.8 57 57 WNW 10 17 30.04 1017 10 16.0934 0 0
6:53 pm 18:53 Cloudy 40 4.4 27 -2.8 60 60 W 9 15 30.06 1018 10 16.0934 0 0
7:53 pm 19:53 Cloudy 39 3.9 28 -2.2 65 65 VRB 7 11 30.08 1019 10 16.0934 0 0
8:45 pm 20:45 Cloudy with Light Snow 35 1.7 31 -0.6 85 85 WNW 9 15 30.09 1019 5 8.0467 0 0.0254
8:53 pm 20:53 Cloudy with Light Snow 35 1.7 31 -0.6 85 85 WNW 7 11 30.1 1019 7 11.26538 0 0.0254
9:53 pm 21:53 Cloudy 36 2.2 31 -0.6 82 82 WNW 6 9 30.12 1020 10 16.0934 0 0.0254
10:53 pm 22:53 Partly Cloudy 36 2.2 31 -0.6 82 82 WNW 7 11 30.12 1020 10 16.0934 0 0
11:53 pm 23:53 Clear 34 1.1 30 -1.1 85 85 W 5 7 30.12 1020 9 14.48406 0 0

Powered by AerisWeather